New Roads False River Regiona, LA

3:42 PM CDT on July 20, 2019 (GMT -0500)
False River

Weather History for KHZR - May, 2019

Change the Weather History Date:

Wednesday, May 15, 2019

  Actual Average (WUND) Record (WUND)
Temperature  
Mean Temperature 72 °F -  
Max Temperature 82 °F - - (-1)
Min Temperature 62 °F - - (-1)
Cooling Degree Days 7    
Growing Degree Days 22 (Base 50)    
Moisture  
Dew Point 63 °F    
Average Humidity 73    
Maximum Humidity 100    
Minimum Humidity 48    
Precipitation  
Precipitation 0.00 in - - ()
Sea Level Pressure  
Sea Level Pressure 30.03 in    
Wind  
Wind Speed 1 mph ()    
Max Wind Speed 7 mph    
Max Gust Speed -    
Visibility 9.8 miles    
Events      
Averages and records for this station are not official NWS values.
T = Trace of Precipitation, MM = Missing Value Source: Averaged Metar Reports

Daily Weather History Graph

Daily Weather History Graph

Search for Another Location

Airport or City:

Astronomy

May. 15, 2019 Rise Set
Actual Time 6:11 AM CDT 7:53 PM CDT
Civil Twilight 5:44 AM CDT 8:20 PM CDT
Nautical Twilight 5:13 AM CDT 8:51 PM CDT
Astronomical Twilight 4:39 AM CDT 9:25 PM CDT
Moon 4:43 PM CDT (5/15) 4:15 AM CDT (5/15)
Length of Visible Light 14h 35m
Length of Day
13h 42m
Waxing Gibbous, 87% of the Moon is Illuminated
May 15
Waxing Gibbous
May 18
Full
May 26
Last Quarter
Jun 3
New
Jun 10
First Quarter

Hourly Weather History & Observations

Time (CDT) Temp. Heat Index Dew Point Humidity Pressure Visibility Wind Dir Wind Speed Gust Speed Precip Events Conditions
12:55 AM 66.2 °F - 62.6 °F 88% 30.02 in 10.0 mi Calm Calm - N/A   Clear
1:35 AM 64.4 °F - 64.4 °F 100% 30.01 in 10.0 mi Calm Calm - N/A   Clear
1:56 AM 64.4 °F - 62.6 °F 94% 30.00 in 10.0 mi Calm Calm - N/A   Clear
2:35 AM 62.6 °F - 62.6 °F 100% 30.00 in 10.0 mi Calm Calm - N/A   Clear
3:16 AM 62.6 °F - 62.6 °F 100% 30.00 in 10.0 mi Calm Calm - N/A   Clear
3:36 AM 62.6 °F - 62.6 °F 100% 30.00 in 10.0 mi Calm Calm - N/A   Clear
3:55 AM 62.6 °F - 62.6 °F 100% 30.00 in 10.0 mi Calm Calm - N/A   Clear
4:15 AM 62.6 °F - 62.6 °F 100% 30.01 in 10.0 mi Calm Calm - N/A   Clear
4:34 AM 62.6 °F - 62.6 °F 100% 30.01 in 10.0 mi Calm Calm - N/A   Clear
5:56 AM 62.6 °F - 60.8 °F 94% 30.02 in 2.5 mi Calm Calm - N/A   Clear
6:15 AM 62.6 °F - 62.6 °F 100% 30.03 in 10.0 mi Calm Calm - N/A   Clear
6:55 AM - - - N/A% 30.04 in 10.0 mi Calm Calm - N/A   Clear
7:35 AM 66.2 °F - 64.4 °F 94% - 10.0 mi Calm Calm - N/A   Clear
7:56 AM 68.0 °F - 64.4 °F 88% 30.06 in 10.0 mi Calm Calm - N/A   Clear
8:16 AM 69.8 °F - 64.4 °F 83% 30.07 in 10.0 mi Calm Calm - N/A   Clear
8:35 AM 71.6 °F - 64.4 °F 78% 30.07 in 10.0 mi Calm Calm - N/A   Clear
8:54 AM 71.6 °F - 64.4 °F 78% 30.08 in 10.0 mi Calm Calm - N/A   Clear
9:15 AM 73.4 °F - 64.4 °F 73% 30.08 in 10.0 mi Calm Calm - N/A   Clear
9:36 AM 75.2 °F - 62.6 °F 65% 30.08 in 10.0 mi Calm Calm - N/A   Clear
10:36 AM 78.8 °F - 62.6 °F 57% 30.07 in 10.0 mi NNW 6.9 mph - N/A   Clear
10:54 AM 78.8 °F - 60.8 °F 54% 30.07 in 10.0 mi NW 4.6 mph - N/A   Clear
11:34 AM 78.8 °F - 60.8 °F 54% 30.07 in 10.0 mi North 4.6 mph - N/A   Clear
12:35 PM 80.6 °F 81.5 °F 60.8 °F 51% 30.06 in 10.0 mi Calm Calm - N/A   Clear
1:14 PM 80.6 °F 81.8 °F 62.6 °F 54% 30.05 in 10.0 mi NNE 3.5 mph - N/A   Clear
1:35 PM 80.6 °F 81.5 °F 60.8 °F 51% 30.05 in 10.0 mi Calm Calm - N/A   Clear
1:56 PM 82.4 °F 83.4 °F 62.6 °F 51% 30.04 in 10.0 mi NNW 4.6 mph - N/A   Clear
2:35 PM 82.4 °F 83.4 °F 62.6 °F 51% 30.03 in 10.0 mi Calm Calm - N/A   Clear
2:54 PM 82.4 °F 83.4 °F 62.6 °F 51% 30.02 in 10.0 mi NNW 4.6 mph - N/A   Clear
3:36 PM 82.4 °F 83.4 °F 62.6 °F 51% 30.00 in 10.0 mi NNE 4.6 mph - N/A   Clear
3:55 PM 82.4 °F 83.4 °F 62.6 °F 51% 30.00 in 10.0 mi NE 4.6 mph - N/A   Clear
4:55 PM 82.4 °F 82.9 °F 60.8 °F 48% 29.99 in 10.0 mi Calm Calm - N/A   Clear
5:15 PM 82.4 °F 82.9 °F 60.8 °F 48% 29.99 in 10.0 mi NNW 3.5 mph - N/A   Clear
5:37 PM 82.4 °F 82.9 °F 60.8 °F 48% 29.99 in 10.0 mi Calm Calm - N/A   Clear
5:54 PM 82.4 °F 83.4 °F 62.6 °F 51% 29.98 in 10.0 mi North 3.5 mph - N/A   Clear
6:14 PM 82.4 °F 83.4 °F 62.6 °F 51% 29.98 in 10.0 mi Calm Calm - N/A   Clear
7:36 PM 78.8 °F - 66.2 °F 65% 29.99 in 10.0 mi Calm Calm - N/A   Clear
7:56 PM 78.8 °F - 64.4 °F 61% 29.99 in 10.0 mi Calm Calm - N/A   Clear
8:36 PM 75.2 °F - 69.8 °F 83% 30.00 in 10.0 mi Calm Calm - N/A   Clear
9:16 PM 73.4 °F - 68.0 °F 83% 30.01 in 10.0 mi Calm Calm - N/A   Clear
10:15 PM 71.6 °F - 68.0 °F 88% 30.03 in 10.0 mi Calm Calm - N/A   Clear
10:56 PM 71.6 °F - 66.2 °F 83% 30.03 in 10.0 mi Calm Calm - N/A   Clear
11:34 PM 71.6 °F - 64.4 °F 78% 30.04 in 10.0 mi Calm Calm - N/A   Clear